{"data":{"norad_id":43922,"epoch":"2026-09-19T21:09:30.960576Z","epoch_age_seconds":68825,"freshness":"FRESH","line1":"1 43922U 19002A   26262.88160834  .00000038  00000+0  64481-5 0  9996","line2":"2 43922  86.3971 314.0355 0002248  95.6796 264.4656 14.34217763402563","mean_motion":14.34217763,"eccentricity":0.0002248,"inclination_deg":86.3971,"raan_deg":314.0355,"arg_perigee_deg":95.6796,"mean_anomaly_deg":264.4656,"bstar":6.4481e-6,"rev_number":40256,"period_min":100.40316311436,"perigee_km":776.05848634834,"apogee_km":779.27573587669,"semimajor_km":7155.8041111125,"source":"CELESTRAK","updated_at":"2026-09-20T09:00:36.354932Z"}}